Location: Domont
(49.0278°N, 2.3264°E)
Time: 13:06:53
(UTC+00:00)

UWE-3 - Pass Details

Date: 08 July 2022
Orbit: 583 x 677 km, 97.7° (Epoch: 14 August)

Event Time Altitude Azimuth Distance (km) Brightness Sun altitude
Rises 02:58:28 0° 17° (NNE) 2,926 ? -7.7°
Reaches altitude 10° 03:00:42 10° 23° (NNE) 2,029 ? -7.5°
Maximum altitude 03:05:01 51° 100° (E) 821 ? -7.0°
Drops below altitude 10° 03:09:25 10° 176° (S) 2,067 ? -6.5°
Sets 03:11:43 0° 181° (S) 2,987 ? -6.3°
